Regional Weather Roundup
Issued by NWS

Home | Current Version | Previous Version | Graphics & Text | Print | Product List | Glossary Off
Versions: 1 2 3 4 5 6 7 8 9 10 11 12 13 14 15 16 17 18 19 20 21 22 23 24 25 26 27 28 29 30 31 32 33 34 35 36 37 38 39 40 41 42 43 44 45 46 47 48 49 50

000
ASUS43 KDMX 040207
RWRIA

WEATHER ROUNDUP FOR IOWA
NATIONAL WEATHER SERVICE DES MOINES IA
900 PM CDT SUN MAY 03 2015

NOTE: "FAIR" INDICATES FEW OR NO CLOUDS BELOW 12,000 FEET WITH NO
SIGNIFICANT WEATHER AND/OR OBSTRUCTIONS TO VISIBILITY.

* - THESE STATIONS ARE NOT NWS STATIONS...THUS NOT UNDER NWS
QUALITY CONTROL.  THEY ALSO DO NOT REPORT WEATHER SUCH
AS PRECIPITATION OR FOG.

IAZ001>003-012>014-020>022-031>034-043>046-040300-
   NORTHWEST IOWA

CITY           SKY/WX    TMP DP  RH WIND       PRES   REMARKS
CARROLL *      MOCLDY    73  59  60 N13G18    29.80R
CHEROKEE *     MOCLDY    70  45  40 NE13      29.84R
DENISON *      MOCLDY    75  59  57 VRB7      29.78R
LE MARS *      CLEAR     70  41  35 N10G20    29.86R
ORANGE CITY *  CLEAR     66  37  34 N14G20    29.87R
SHELDON *      CLEAR     64  41  42 NE13      29.87R
SIOUX CITY     CLOUDY    74  41  30 E13G22    29.83R
SPENCER        CLEAR     66  46  48 NE18      29.86R
STORM LAKE *   PTCLDY    70  45  40 NE17G24   29.84R
$$

IAZ055>058-069>071-079>083-090>094-040300-
   SOUTHWEST IOWA

CITY           SKY/WX    TMP DP  RH WIND       PRES   REMARKS
ATLANTIC *     CLEAR     72  61  68 S7        29.76S
AUDUBON *      CLEAR     70  61  73 CALM      29.79R
CLARINDA *     PTCLDY    73  52  46 S10G25    29.80F
COUNCIL BLFS * PTCLDY    75  59  57 W13       29.78R
CRESTON *      CLEAR     73  59  60 SW14G21   29.78F
HARLAN  *      CLEAR     70  63  78 NW3       29.81R
LAMONI         CLOUDY    74  58  57 S14       29.80S
RED OAK *      CLOUDY    73  59  60 S16       29.77S
SHENANDOAH *   MOCLDY    75  59  57 SW12G18   29.81R
$$

IAZ047>049-059>061-072>074-084-040300-
   CENTRAL IOWA

CITY           SKY/WX    TMP DP  RH WIND       PRES   REMARKS
AMES           PTCLDY    71  58  63 CALM      29.80R
ANKENY *       CLEAR     73  59  60 S6        29.79R
CHARITON *     PTCLDY    72  59  64 S7        29.81R
DES MOINES     CLOUDY    75  58  55 S5        29.78R
GRINNELL*      PTCLDY    70  57  64 S8        29.81R
KNOXVILLE *    CLEAR     72  57  60 S7        29.79R
MARSHALLTOWN   MOCLDY    71  58  63 S8        29.80R
PELLA *        PTCLDY    72  63  73 S6        29.81R
PERRY *          N/A     70  57  64 N6        29.80R
$$

IAZ004>006-015-016-023>025-035-036-040300-
   NORTH CENTRAL IOWA

CITY           SKY/WX    TMP DP  RH WIND       PRES   REMARKS
ALGONA *       CLEAR     64  55  72 NE15      29.85R
CLARION *      DRIZZLE   63  57  82 N7        29.84R
ESTHERVILLE    MOCLDY    66  43  43 NE16G28   29.85R
FORT DODGE *   MOCLDY    61  55  82 N8        29.83S
MASON CITY     TSTM      64  60  87 E17       29.81F
FOREST CITY *  LGT RAIN  63  59  88 N12       29.84R
IOWA FALLS *   MOCLDY    70  48  46 N21G35    29.86R
$$

IAZ007>011-017>019-026>030-037>042-050>054-066-040300-
   NORTHEAST IOWA

CITY           SKY/WX    TMP DP  RH WIND       PRES   REMARKS
CEDAR RAPIDS   CLEAR     70  59  68 S9        29.82R
CHARLES CITY * HVY RAIN  61  59  94 NW20G29   29.87R
CLINTON *      CLEAR     64  59  82 SE9       29.87R
DECORAH *      MOCLDY    72  57  60 SE7       29.81R
DUBUQUE        MOCLDY    65  59  81 S8        29.86R
MONTICELLO *   CLOUDY    68  64  88 SE7       29.84R
OELWEIN *      CLOUDY    75  57  53 S13       29.83R
WATERLOO       CLOUDY    75  57  53 S9        29.82R
$$

IAZ064-065-067-068-078-040300-
   EAST CENTRAL IOWA

CITY           SKY/WX    TMP DP  RH WIND       PRES   REMARKS
DAVENPORT      CLEAR     76  53  44 SW13      29.85R
IOWA CITY      PTCLDY    73  57  57 S9        29.83R
MT. PLEASANT * CLEAR     72  55  56 S10       29.84S
MUSCATINE *    PTCLDY    73  57  56 S10       29.84R
QUAD CITIES    CLEAR     76  54  46 SW10      29.84R
$$

IAZ062-063-075>077-085>089-095>099-040300-
   SOUTHEAST IOWA

CITY           SKY/WX    TMP DP  RH WIND       PRES   REMARKS
BURLINGTON     CLEAR     74  56  53 S10       29.85F
FAIRFIELD *    PTCLDY    72  57  60 S12       29.82S
FORT MADISON * CLEAR     72  57  60 S8        29.86F
KEOKUK *       CLEAR     75  55  50 S12       29.85S
OSKALOOSA *      N/A     70  57  64 S9        29.81R
CENTERVILLE *  CLEAR     72  59  64 S13       29.82F
OTTUMWA        CLEAR     73  57  57 S10       29.80S
WASHINGTON *   CLEAR     73  61  64 S13       29.82R
$$

ABBREVIATIONS USED IN REMARKS
   TC - TEMPERATURES IN CELSIUS
  WCI - WIND CHILL INDEX
   HX - HEAT INDEX
  VSB - VISIBILITY
$$



USA.gov is the U.S. government's official web portal to all federal, state and local government web resources and services.